カタログに戻る

STARLINK-31198

運用中通信VLEO
NORAD 58867·PAYLOAD·🇺🇸 United States

打ち上げ Jan 29, 2024 から Cape Canaveral Space Force Station

Loading…

次のパス (今後24時間)

TLE

最新Source: CelesTrak SupGP

元期: Sep 14, 2026, 20:39 UTC

1 58867C 24019Q   26257.86090278  .00023180  00000+0  83993-3 0  2577
2 58867  42.9998 260.3801 0001423 264.9235 173.6704 15.27553392    19

AllMySatでSTARLINK-31198をリアルタイム追跡

Download on the App Store